Back to catalog

HULIANWANG DIGUI-07

AliveCommunicationsPO
NORAD 62329·PAYLOAD·🇨🇳 China

Launched Dec 16, 2024 from Wenchang Space Launch Site

Loading…

Next Passes (next 24 hours)

TLE

FreshSource: Space-Track

Epoch: Sep 14, 2026, 22:20 UTC

1 62329U 24240G   26257.93087512  .00000047  00000-0  74717-4 0  9992
2 62329  86.4945 312.6454 0001735  88.7755 271.3578 13.24413783 84529

Track HULIANWANG DIGUI-07 in real time with AllMySat

Download on the App Store